User: anonymous   Login
Location: NJAA Observatory
(40.6819°N, 74.8979°W)
Time: 04:07:51
(UTC-04:00)
Language:

Cosmos 2263 Rocket - Orbit

View from above orbital plane
View from above orbital plane
View from above satellite
View from above satellite

Ground track
Ground track

The orbit data is extracted from the following two-line orbital elements,

1 22803U 93059B   16239.87528806  .00000018  00000-0  32770-4 0  9998
2 22803  70.9907 149.6110 0015268 117.2621 243.0059 14.16748656186593
Epoch (UTC): 26 August 2016 21:00:24
Eccentricity: 0.0015268
inclination: 70.9907°
perigee height: 825 km
apogee height: 847 km
right ascension of ascending node: 149.6110°
argument of perigee: 117.2621°
revolutions per day: 14.16748656
mean anomaly at epoch: 243.0059°
orbit number at epoch: 18659

The dashed part of the orbit path shows where the satellite is in the earth's shadow,  

DLR